Time,TemperatureF,DewpointF,PressureIn,WindDirection,WindDirectionDegrees,WindSpeedMPH,WindSpeedGustMPH,Humidity,HourlyPrecipIn,Conditions,Clouds,dailyrainin,SoftwareType,DateUTC
2013-01-01 00:00:00,58.5,58.5,0.00,ENE,77,0.0,0.0,100,0.00,,---,0.00,VWS V14.01,2013-01-01 06:00:00,
2013-01-01 00:05:00,58.5,58.5,0.00,ENE,77,0.0,0.0,100,0.00,,---,0.00,VWS V14.01,2013-01-01 06:05:00,
2013-01-01 00:10:00,58.6,58.6,0.00,ENE,77,0.0,0.0,100,0.00,,---,0.00,VWS V14.01,2013-01-01 06:10:00,
2013-01-01 00:15:00,58.6,58.6,0.00,ENE,77,0.0,0.0,100,0.00,,---,0.00,VWS V14.01,2013-01-01 06:15:00,
2013-01-01 00:20:00,58.6,58.6,0.00,ENE,77,0.0,0.0,100,0.00,,---,0.00,VWS V14.01,2013-01-01 06:20:00,
2013-01-01 00:25:00,58.6,58.6,0.00,ENE,77,0.0,0.0,100,0.00,,---,0.00,VWS V14.01,2013-01-01 06:25:00,
2013-01-01 00:30:00,58.8,58.8,0.00,ENE,77,0.0,0.0,100,0.00,,---,0.00,VWS V14.01,2013-01-01 06:30:00,
2013-01-01 00:35:00,58.8,58.8,0.00,ENE,77,0.0,0.0,100,0.00,,---,0.00,VWS V14.01,2013-01-01 06:35:00,
2013-01-01 00:40:00,58.8,58.8,0.00,ENE,77,0.0,0.0,100,0.00,,---,0.00,VWS V14.01,2013-01-01 06:40:00,
2013-01-01 00:45:00,58.6,58.6,0.00,NNE,31,0.0,0.0,100,0.00,,---,0.00,VWS V14.01,2013-01-01 06:45:00,
2013-01-01 00:50:00,58.5,58.5,0.00,NNE,31,0.0,0.0,100,0.00,,---,0.00,VWS V14.01,2013-01-01 06:50:00,
2013-01-01 00:55:00,58.5,58.5,0.00,NNE,31,0.0,0.0,100,0.00,,---,0.00,VWS V14.01,2013-01-01 06:55:00,
2013-01-01 01:00:00,58.5,58.5,0.00,NNE,31,0.0,0.0,100,0.00,,---,0.00,VWS V14.01,2013-01-01 07:00:00,
2013-01-01 01:05:00,58.5,58.5,0.00,NNE,31,0.0,0.0,100,0.00,,---,0.00,VWS V14.01,2013-01-01 07:05:00,
2013-01-01 01:10:00,58.5,58.5,0.00,NNE,31,0.0,0.0,100,0.00,,---,0.00,VWS V14.01,2013-01-01 07:10:00,
2013-01-01 01:15:00,58.5,58.5,0.00,NNE,31,0.0,0.0,100,0.00,,---,0.00,VWS V14.01,2013-01-01 07:15:00,
2013-01-01 01:20:00,58.5,58.5,0.00,NNE,30,0.0,0.0,100,0.00,,---,0.00,VWS V14.01,2013-01-01 07:20:00,
2013-01-01 01:25:00,58.5,58.5,0.00,NNE,30,0.0,0.0,100,0.00,,---,0.00,VWS V14.01,2013-01-01 07:25:00,
2013-01-01 01:30:00,58.5,58.5,0.00,NNE,30,0.0,0.0,100,0.00,,---,0.00,VWS V14.01,2013-01-01 07:30:00,
2013-01-01 01:35:00,58.6,58.6,0.00,NNE,30,0.0,0.0,100,0.00,,---,0.00,VWS V14.01,2013-01-01 07:35:00,
2013-01-01 01:40:00,58.6,58.6,0.00,NNE,30,0.0,0.0,100,0.00,,---,0.00,VWS V14.01,2013-01-01 07:40:00,
2013-01-01 01:45:00,58.6,58.6,0.00,NNE,30,0.0,0.0,100,0.00,,---,0.00,VWS V14.01,2013-01-01 07:45:00,
2013-01-01 01:50:00,58.6,58.6,0.00,NE,52,0.0,0.0,100,0.00,,---,0.00,VWS V14.01,2013-01-01 07:50:00,
2013-01-01 01:55:00,58.6,58.6,0.00,NE,52,0.0,0.0,100,0.00,,---,0.00,VWS V14.01,2013-01-01 07:55:00,
2013-01-01 02:00:00,58.6,58.6,0.00,NNE,32,0.0,0.0,100,0.00,,---,0.00,VWS V14.01,2013-01-01 08:00:00,
2013-01-01 02:05:00,58.6,58.6,0.00,NE,37,0.0,0.0,100,0.00,,---,0.00,VWS V14.01,2013-01-01 08:05:00,
2013-01-01 02:10:00,58.6,58.6,0.00,NE,37,0.0,0.0,100,0.00,,---,0.00,VWS V14.01,2013-01-01 08:10:00,
2013-01-01 02:15:00,58.8,58.8,0.00,NE,37,0.0,0.0,100,0.00,,---,0.00,VWS V14.01,2013-01-01 08:15:00,
2013-01-01 02:20:00,58.8,58.8,0.00,NE,37,0.0,0.0,100,0.00,,---,0.00,VWS V14.01,2013-01-01 08:20:00,
2013-01-01 02:25:00,58.8,58.8,0.00,NE,37,0.0,0.0,100,0.00,,---,0.00,VWS V14.01,2013-01-01 08:25:00,
2013-01-01 02:30:00,58.8,58.8,0.00,NE,37,0.0,0.0,100,0.00,,---,0.00,VWS V14.01,2013-01-01 08:30:00,
2013-01-01 02:35:00,58.8,58.8,0.00,ENE,60,0.0,0.0,100,0.00,,---,0.00,VWS V14.01,2013-01-01 08:35:00,
2013-01-01 02:40:00,58.8,58.8,0.00,ENE,60,0.0,0.0,100,0.00,,---,0.00,VWS V14.01,2013-01-01 08:40:00,
2013-01-01 02:45:00,58.8,58.8,0.00,ENE,60,0.0,0.0,100,0.00,,---,0.00,VWS V14.01,2013-01-01 08:45:00,
2013-01-01 02:50:00,58.8,58.8,0.00,ENE,60,0.0,0.0,100,0.00,,---,0.00,VWS V14.01,2013-01-01 08:50:00,
2013-01-01 02:55:00,59.0,59.0,0.00,ENE,60,0.0,0.0,100,0.00,,---,0.00,VWS V14.01,2013-01-01 08:55:00,
2013-01-01 03:00:00,59.0,59.0,0.00,NE,37,0.0,0.0,100,0.00,,---,0.00,VWS V14.01,2013-01-01 09:00:00,
2013-01-01 03:05:00,58.8,58.8,0.00,NE,37,0.0,0.0,100,0.00,,---,0.00,VWS V14.01,2013-01-01 09:05:00,
2013-01-01 03:10:00,58.8,58.8,0.00,ENE,64,0.0,0.0,100,0.00,,---,0.00,VWS V14.01,2013-01-01 09:10:00,
2013-01-01 03:15:00,59.0,59.0,0.00,ENE,72,0.0,0.0,100,0.00,,---,0.00,VWS V14.01,2013-01-01 09:15:00,
2013-01-01 03:20:00,59.0,59.0,0.00,ENE,72,0.0,0.0,100,0.00,,---,0.00,VWS V14.01,2013-01-01 09:20:00,
2013-01-01 03:25:00,59.0,59.0,0.00,NNE,27,0.0,0.0,100,0.00,,---,0.00,VWS V14.01,2013-01-01 09:25:00,
2013-01-01 03:30:00,59.0,59.0,0.00,NNE,27,0.0,0.0,100,0.00,,---,0.00,VWS V14.01,2013-01-01 09:30:00,
2013-01-01 03:35:00,59.0,59.0,0.00,NNE,27,0.0,0.0,100,0.00,,---,0.00,VWS V14.01,2013-01-01 09:35:00,
2013-01-01 03:40:00,59.0,59.0,0.00,NNE,27,0.0,0.0,100,0.00,,---,0.00,VWS V14.01,2013-01-01 09:40:00,
2013-01-01 03:45:00,59.0,59.0,0.00,NNE,27,0.0,0.0,100,0.00,,---,0.00,VWS V14.01,2013-01-01 09:45:00,
2013-01-01 03:50:00,59.0,59.0,0.00,NNE,27,0.0,0.0,100,0.00,,---,0.00,VWS V14.01,2013-01-01 09:50:00,
2013-01-01 03:55:00,59.2,59.2,0.00,NNE,24,0.0,0.0,100,0.00,,---,0.00,VWS V14.01,2013-01-01 09:55:00,
2013-01-01 04:00:00,59.2,59.2,0.00,NNE,24,0.0,0.0,100,0.00,,---,0.00,VWS V14.01,2013-01-01 10:00:00,
2013-01-01 04:05:00,59.0,59.0,0.00,NNE,24,0.0,0.0,100,0.00,,---,0.00,VWS V14.01,2013-01-01 10:05:00,
2013-01-01 04:10:00,59.0,59.0,0.00,NNE,24,0.0,0.0,100,0.00,,---,0.00,VWS V14.01,2013-01-01 10:10:00,
2013-01-01 04:15:00,59.0,59.0,0.00,NNE,24,0.0,0.0,100,0.00,,---,0.00,VWS V14.01,2013-01-01 10:15:00,
2013-01-01 04:20:00,59.0,59.0,0.00,NNE,24,0.0,0.0,100,0.00,,---,0.00,VWS V14.01,2013-01-01 10:20:00,
2013-01-01 04:25:00,59.0,59.0,0.00,NNE,24,0.0,0.0,100,0.00,,---,0.00,VWS V14.01,2013-01-01 10:25:00,
2013-01-01 04:30:00,59.0,59.0,0.00,NNE,24,0.0,0.0,100,0.00,,---,0.00,VWS V14.01,2013-01-01 10:30:00,
2013-01-01 04:35:00,59.0,59.0,0.00,NNE,24,0.0,0.0,100,0.00,,---,0.00,VWS V14.01,2013-01-01 10:35:00,
2013-01-01 04:40:00,59.0,59.0,0.00,NNE,24,0.0,0.0,100,0.00,,---,0.00,VWS V14.01,2013-01-01 10:40:00,
2013-01-01 04:45:00,59.2,59.2,0.00,NNE,24,0.0,0.0,100,0.00,,---,0.00,VWS V14.01,2013-01-01 10:45:00,
2013-01-01 04:50:00,59.2,59.2,0.00,North,357,0.0,0.0,100,0.00,,---,0.00,VWS V14.01,2013-01-01 10:50:00,
2013-01-01 04:55:00,59.2,59.2,0.00,North,5,0.0,0.0,100,0.00,,---,0.00,VWS V14.01,2013-01-01 10:55:00,
2013-01-01 05:00:00,59.2,59.2,0.00,NNE,22,0.0,0.0,100,0.00,,---,0.00,VWS V14.01,2013-01-01 11:00:00,
2013-01-01 05:05:00,59.0,59.0,0.00,North,350,0.0,0.0,100,0.00,,---,0.00,VWS V14.01,2013-01-01 11:05:00,
2013-01-01 05:10:00,59.0,59.0,0.00,North,350,0.0,0.0,100,0.00,,---,0.00,VWS V14.01,2013-01-01 11:10:00,
2013-01-01 05:15:00,59.0,59.0,0.00,NE,35,0.0,0.0,100,0.00,,---,0.00,VWS V14.01,2013-01-01 11:15:00,
2013-01-01 05:20:00,59.0,59.0,0.00,NE,44,0.0,0.0,100,0.00,,---,0.00,VWS V14.01,2013-01-01 11:20:00,
2013-01-01 05:25:00,59.0,59.0,0.00,NE,44,0.0,0.0,100,0.00,,---,0.00,VWS V14.01,2013-01-01 11:25:00,
2013-01-01 05:30:00,59.0,59.0,0.00,NE,44,0.0,0.0,100,0.00,,---,0.00,VWS V14.01,2013-01-01 11:30:00,
2013-01-01 05:35:00,59.0,59.0,0.00,North,0,0.0,0.0,100,0.00,,---,0.00,VWS V14.01,2013-01-01 11:35:00,
2013-01-01 05:40:00,59.0,59.0,0.00,North,353,0.0,0.0,100,0.00,,---,0.00,VWS V14.01,2013-01-01 11:40:00,
2013-01-01 05:45:00,58.8,58.8,0.00,North,353,0.0,0.0,100,0.00,,---,0.00,VWS V14.01,2013-01-01 11:45:00,
2013-01-01 05:50:00,58.8,58.8,0.00,North,353,0.0,0.0,100,0.00,,---,0.00,VWS V14.01,2013-01-01 11:50:00,
2013-01-01 05:55:00,58.8,58.8,0.00,NE,43,0.0,0.0,100,0.00,,---,0.00,VWS V14.01,2013-01-01 11:55:00,
2013-01-01 06:00:00,58.8,58.8,0.00,NE,43,0.0,0.0,100,0.00,,---,0.00,VWS V14.01,2013-01-01 12:00:00,
2013-01-01 06:05:00,58.6,58.6,0.00,NNE,31,0.0,2.2,100,0.00,,---,0.00,VWS V14.01,2013-01-01 12:05:00,
2013-01-01 06:10:00,58.6,58.6,0.00,NNE,29,0.0,0.0,100,0.00,,---,0.00,VWS V14.01,2013-01-01 12:10:00,
2013-01-01 06:15:00,58.6,58.6,0.00,NNE,15,0.0,0.0,100,0.00,,---,0.00,VWS V14.01,2013-01-01 12:15:00,
2013-01-01 06:20:00,58.5,58.5,0.00,NNE,21,0.0,0.0,100,0.00,,---,0.00,VWS V14.01,2013-01-01 12:20:00,
2013-01-01 06:25:00,58.5,58.5,0.00,North,0,0.0,0.0,100,0.00,,---,0.00,VWS V14.01,2013-01-01 12:25:00,
2013-01-01 06:30:00,58.5,58.5,0.00,NNE,33,4.0,4.0,100,0.00,,---,0.00,VWS V14.01,2013-01-01 12:30:00,
2013-01-01 06:35:00,58.5,58.5,0.00,NE,36,0.0,3.6,100,0.00,,---,0.00,VWS V14.01,2013-01-01 12:35:00,
2013-01-01 06:40:00,58.5,58.5,0.00,NNE,33,3.1,3.1,100,0.00,,---,0.00,VWS V14.01,2013-01-01 12:40:00,
2013-01-01 06:45:00,58.5,58.5,0.00,NE,40,0.0,0.0,100,0.00,,---,0.00,VWS V14.01,2013-01-01 12:45:00,
2013-01-01 06:50:00,58.3,58.3,0.00,NNE,28,0.0,0.0,100,0.00,,---,0.00,VWS V14.01,2013-01-01 12:50:00,
2013-01-01 06:55:00,58.3,58.3,0.00,NE,41,0.0,0.0,100,0.00,,---,0.00,VWS V14.01,2013-01-01 12:55:00,
2013-01-01 07:00:00,58.3,58.3,0.00,ENE,62,0.0,0.0,100,0.00,,---,0.00,VWS V14.01,2013-01-01 13:00:00,
2013-01-01 07:05:00,58.3,58.3,0.00,NNE,25,0.0,0.0,100,0.00,,---,0.00,VWS V14.01,2013-01-01 13:05:00,
2013-01-01 07:10:00,58.3,58.3,0.00,NE,56,0.0,0.0,100,0.00,,---,0.00,VWS V14.01,2013-01-01 13:10:00,
2013-01-01 07:15:00,58.3,58.3,0.00,NE,41,0.0,0.0,100,0.00,,---,0.00,VWS V14.01,2013-01-01 13:15:00,
2013-01-01 07:20:00,58.3,58.3,0.00,NE,44,0.0,0.0,100,0.00,,---,0.00,VWS V14.01,2013-01-01 13:20:00,
2013-01-01 07:25:00,58.3,58.3,0.00,ENE,58,4.0,5.8,100,0.00,,---,0.00,VWS V14.01,2013-01-01 13:25:00,
2013-01-01 07:30:00,58.3,58.3,0.00,ENE,63,0.0,0.0,100,0.00,,---,0.00,VWS V14.01,2013-01-01 13:30:00,
2013-01-01 07:35:00,58.3,58.3,0.00,NE,44,0.0,0.0,100,0.00,,---,0.00,VWS V14.01,2013-01-01 13:35:00,
2013-01-01 07:40:00,58.3,58.3,0.00,NE,56,0.0,0.0,100,0.00,,---,0.00,VWS V14.01,2013-01-01 13:40:00,
2013-01-01 07:45:00,58.5,58.5,0.00,ENE,61,0.0,0.0,100,0.00,,---,0.00,VWS V14.01,2013-01-01 13:45:00,
2013-01-01 07:50:00,58.5,58.5,0.00,NNE,17,0.0,0.0,100,0.00,,---,0.00,VWS V14.01,2013-01-01 13:50:00,
2013-01-01 07:55:00,58.5,58.5,0.00,NE,40,0.0,0.0,100,0.00,,---,0.00,VWS V14.01,2013-01-01 13:55:00,
2013-01-01 08:00:00,58.5,58.5,0.00,NE,38,0.0,0.0,100,0.00,,---,0.00,VWS V14.01,2013-01-01 14:00:00,
2013-01-01 08:05:00,58.5,58.5,0.00,NE,38,0.0,0.0,100,0.00,,---,0.00,VWS V14.01,2013-01-01 14:05:00,
2013-01-01 08:10:00,58.5,58.5,0.00,NE,35,0.0,0.0,100,0.00,,---,0.00,VWS V14.01,2013-01-01 14:10:00,
2013-01-01 08:15:00,58.5,58.5,0.00,NE,47,0.0,0.0,100,0.00,,---,0.00,VWS V14.01,2013-01-01 14:15:00,
2013-01-01 08:20:00,58.5,58.5,0.00,NNE,22,0.0,0.0,100,0.00,,---,0.00,VWS V14.01,2013-01-01 14:20:00,
2013-01-01 08:25:00,58.5,58.5,0.00,NNE,23,0.0,0.0,100,0.00,,---,0.00,VWS V14.01,2013-01-01 14:25:00,
2013-01-01 08:30:00,58.3,58.3,0.00,North,353,0.0,0.0,100,0.00,,---,0.00,VWS V14.01,2013-01-01 14:30:00,
2013-01-01 08:35:00,58.5,58.5,0.00,NNE,27,0.0,0.0,100,0.00,,---,0.00,VWS V14.01,2013-01-01 14:35:00,
2013-01-01 08:40:00,58.5,58.5,0.00,NE,43,0.0,0.0,100,0.00,,---,0.00,VWS V14.01,2013-01-01 14:40:00,
2013-01-01 08:45:00,58.6,58.6,0.00,North,357,0.0,0.0,100,0.00,,---,0.00,VWS V14.01,2013-01-01 14:45:00,
2013-01-01 08:50:00,58.6,58.6,0.00,NNW,345,0.0,0.0,100,0.00,,---,0.00,VWS V14.01,2013-01-01 14:50:00,
2013-01-01 08:55:00,58.5,58.5,0.00,ENE,68,0.0,0.0,100,0.00,,---,0.00,VWS V14.01,2013-01-01 14:55:00,
2013-01-01 09:00:00,58.5,58.5,0.00,North,9,0.0,0.0,100,0.00,,---,0.00,VWS V14.01,2013-01-01 15:00:00,
2013-01-01 09:05:00,58.6,58.6,0.00,ESE,104,0.0,0.0,100,0.00,,---,0.00,VWS V14.01,2013-01-01 15:05:00,
2013-01-01 09:10:00,58.8,58.8,0.00,East,99,0.0,0.0,100,0.00,,---,0.00,VWS V14.01,2013-01-01 15:10:00,
2013-01-01 09:15:00,58.8,58.8,0.00,NNW,338,0.0,0.0,100,0.00,,---,0.00,VWS V14.01,2013-01-01 15:15:00,
2013-01-01 09:20:00,58.8,58.8,0.00,NNW,334,2.7,5.4,100,0.00,,---,0.00,VWS V14.01,2013-01-01 15:20:00,
2013-01-01 09:25:00,58.6,58.6,0.00,NW,311,0.0,0.0,100,0.00,,---,0.00,VWS V14.01,2013-01-01 15:25:00,
2013-01-01 09:30:00,58.6,58.6,0.00,NE,48,0.0,0.0,100,0.00,,---,0.00,VWS V14.01,2013-01-01 15:30:00,
2013-01-01 09:35:00,58.5,58.5,0.00,NNE,12,0.0,0.0,100,0.00,,---,0.00,VWS V14.01,2013-01-01 15:35:00,
2013-01-01 09:40:00,58.5,58.5,0.00,North,353,0.0,0.0,100,0.00,,---,0.00,VWS V14.01,2013-01-01 15:40:00,
2013-01-01 09:45:00,58.5,58.5,0.00,North,357,0.0,0.0,100,0.00,,---,0.00,VWS V14.01,2013-01-01 15:45:00,
2013-01-01 09:50:00,58.3,58.3,0.00,NNE,17,0.0,0.0,100,0.00,,---,0.00,VWS V14.01,2013-01-01 15:50:00,
2013-01-01 09:55:00,58.1,58.1,0.00,ENE,58,0.0,0.0,100,0.00,,---,0.00,VWS V14.01,2013-01-01 15:55:00,
2013-01-01 10:00:00,57.9,57.9,0.00,NNW,331,0.0,0.0,100,0.00,,---,0.00,VWS V14.01,2013-01-01 16:00:00,
2013-01-01 10:05:00,58.1,58.1,0.00,ENE,62,0.0,0.0,100,0.00,,---,0.00,VWS V14.01,2013-01-01 16:05:00,
2013-01-01 10:10:00,58.1,58.1,0.00,NE,47,0.0,0.0,100,0.00,,---,0.00,VWS V14.01,2013-01-01 16:10:00,
2013-01-01 10:15:00,58.3,58.3,0.00,North,0,0.0,0.0,100,0.00,,---,0.00,VWS V14.01,2013-01-01 16:15:00,
2013-01-01 10:20:00,58.3,58.3,0.00,ENE,60,0.0,0.0,100,0.00,,---,0.00,VWS V14.01,2013-01-01 16:20:00,
2013-01-01 10:25:00,58.3,58.3,0.00,NW,317,0.0,0.0,100,0.00,,---,0.00,VWS V14.01,2013-01-01 16:25:00,
2013-01-01 10:30:00,58.1,58.1,0.00,ENE,63,0.0,0.0,100,0.00,,---,0.00,VWS V14.01,2013-01-01 16:30:00,
2013-01-01 10:35:00,58.1,58.1,0.00,NE,36,0.0,0.0,100,0.00,,---,0.00,VWS V14.01,2013-01-01 16:35:00,
2013-01-01 10:40:00,58.1,58.1,0.00,NE,52,0.0,2.7,100,0.00,,---,0.00,VWS V14.01,2013-01-01 16:40:00,
2013-01-01 10:45:00,57.9,57.9,0.00,ENE,58,0.0,0.0,100,0.00,,---,0.00,VWS V14.01,2013-01-01 16:45:00,
2013-01-01 10:50:00,57.9,57.4,0.00,ENE,58,0.0,0.0,98,0.00,,---,0.00,VWS V14.01,2013-01-01 16:50:00,
2013-01-01 10:55:00,57.0,54.4,0.00,NE,46,0.0,0.0,91,0.00,,---,0.00,VWS V14.01,2013-01-01 16:55:00,
2013-01-01 11:00:00,56.8,53.9,0.00,NE,49,0.0,0.0,90,0.00,,---,0.00,VWS V14.01,2013-01-01 17:00:00,
2013-01-01 11:05:00,56.3,53.1,0.00,NNW,337,0.0,0.0,89,0.00,,---,0.00,VWS V14.01,2013-01-01 17:05:00,
2013-01-01 11:10:00,55.4,51.0,0.00,NNW,346,0.0,0.0,85,0.00,,---,0.00,VWS V14.01,2013-01-01 17:10:00,
2013-01-01 11:15:00,54.1,49.4,0.00,NNE,24,0.0,0.0,84,0.00,,---,0.00,VWS V14.01,2013-01-01 17:15:00,
2013-01-01 11:20:00,52.9,48.2,0.00,NW,324,2.7,4.0,84,0.00,,---,0.00,VWS V14.01,2013-01-01 17:20:00,
2013-01-01 11:25:00,51.8,47.4,0.00,North,2,0.0,0.0,85,0.00,,---,0.00,VWS V14.01,2013-01-01 17:25:00,
2013-01-01 11:30:00,50.7,46.7,0.00,NW,319,0.0,0.0,86,0.00,,---,0.00,VWS V14.01,2013-01-01 17:30:00,
2013-01-01 11:35:00,49.8,45.8,0.00,North,5,0.0,0.0,86,0.00,,---,0.00,VWS V14.01,2013-01-01 17:35:00,
2013-01-01 11:40:00,48.9,44.6,0.00,NW,316,4.9,6.3,85,0.00,,---,0.00,VWS V14.01,2013-01-01 17:40:00,
2013-01-01 11:45:00,48.2,44.2,0.00,NNW,342,0.0,0.0,86,0.00,,---,0.00,VWS V14.01,2013-01-01 17:45:00,
2013-01-01 11:50:00,47.7,44.0,0.00,North,8,0.0,0.0,87,0.00,,---,0.00,VWS V14.01,2013-01-01 17:50:00,
2013-01-01 11:55:00,46.9,43.3,0.00,NW,325,0.0,0.0,87,0.00,,---,0.00,VWS V14.01,2013-01-01 17:55:00,
2013-01-01 12:00:00,46.4,42.5,0.00,NNW,341,0.0,0.0,86,0.00,,---,0.00,VWS V14.01,2013-01-01 18:00:00,
2013-01-01 12:05:00,45.5,41.3,0.00,NNW,336,0.0,0.0,85,0.00,,---,0.00,VWS V14.01,2013-01-01 18:05:00,
2013-01-01 12:10:00,44.8,40.5,0.00,NNW,344,3.1,3.1,85,0.00,,---,0.00,VWS V14.01,2013-01-01 18:10:00,
2013-01-01 12:15:00,44.2,40.3,0.00,NNW,344,0.0,0.0,86,0.00,,---,0.00,VWS V14.01,2013-01-01 18:15:00,
2013-01-01 12:20:00,43.9,40.3,0.00,NW,322,0.0,0.0,87,0.00,,---,0.00,VWS V14.01,2013-01-01 18:20:00,
2013-01-01 12:25:00,43.2,39.6,0.00,NNW,335,6.3,6.3,87,0.00,,---,0.00,VWS V14.01,2013-01-01 18:25:00,
2013-01-01 12:30:00,42.6,39.3,0.00,NNW,345,2.2,3.1,88,0.00,,---,0.00,VWS V14.01,2013-01-01 18:30:00,
2013-01-01 12:35:00,42.6,39.6,0.00,WNW,297,0.0,0.0,89,0.00,,---,0.00,VWS V14.01,2013-01-01 18:35:00,
2013-01-01 12:40:00,42.6,39.9,0.00,North,357,0.0,0.0,90,0.00,,---,0.00,VWS V14.01,2013-01-01 18:40:00,
2013-01-01 12:45:00,42.6,39.9,0.00,East,83,0.0,0.0,90,0.00,,---,0.00,VWS V14.01,2013-01-01 18:45:00,
2013-01-01 12:50:00,42.4,39.4,0.00,ENE,72,0.0,0.0,89,0.00,,---,0.00,VWS V14.01,2013-01-01 18:50:00,
2013-01-01 12:55:00,42.3,39.3,0.00,North,353,2.2,2.7,89,0.00,,---,0.00,VWS V14.01,2013-01-01 18:55:00,
2013-01-01 13:00:00,42.1,39.1,0.00,North,353,0.0,0.0,89,0.00,,---,0.00,VWS V14.01,2013-01-01 19:00:00,
2013-01-01 13:05:00,41.7,38.4,0.00,NNE,17,0.0,0.0,88,0.00,,---,0.00,VWS V14.01,2013-01-01 19:05:00,
2013-01-01 13:10:00,41.0,37.4,0.00,North,7,0.0,0.0,87,0.00,,---,0.00,VWS V14.01,2013-01-01 19:10:00,
2013-01-01 13:15:00,40.6,37.1,0.00,North,4,0.0,0.0,87,0.00,,---,0.00,VWS V14.01,2013-01-01 19:15:00,
2013-01-01 13:20:00,40.6,37.1,0.00,NNE,16,0.0,0.0,87,0.00,,---,0.00,VWS V14.01,2013-01-01 19:20:00,
2013-01-01 13:25:00,40.6,37.4,0.00,North,5,2.7,2.7,88,0.00,,---,0.00,VWS V14.01,2013-01-01 19:25:00,
2013-01-01 13:30:00,40.5,36.9,0.00,North,353,3.1,3.6,87,0.00,,---,0.00,VWS V14.01,2013-01-01 19:30:00,
2013-01-01 13:35:00,40.3,36.4,0.00,NNE,23,0.0,0.0,86,0.00,,---,0.00,VWS V14.01,2013-01-01 19:35:00,
2013-01-01 13:40:00,40.5,36.6,0.00,NNW,342,0.0,0.0,86,0.00,,---,0.00,VWS V14.01,2013-01-01 19:40:00,
2013-01-01 13:45:00,40.5,36.9,0.00,North,7,0.0,3.6,87,0.00,,---,0.00,VWS V14.01,2013-01-01 19:45:00,
2013-01-01 13:50:00,39.9,35.8,0.00,North,8,0.0,6.3,85,0.00,,---,0.00,VWS V14.01,2013-01-01 19:50:00,
2013-01-01 13:55:00,39.9,36.1,0.00,NNW,330,0.0,0.0,86,0.00,,---,0.00,VWS V14.01,2013-01-01 19:55:00,
2013-01-01 14:00:00,39.9,36.1,0.00,NW,322,0.0,0.0,86,0.00,,---,0.00,VWS V14.01,2013-01-01 20:00:00,
2013-01-01 14:05:00,39.9,36.1,0.00,NNE,20,2.7,3.6,86,0.00,,---,0.00,VWS V14.01,2013-01-01 20:05:00,
2013-01-01 14:10:00,39.2,34.8,0.00,North,6,0.0,3.6,84,0.00,,---,0.00,VWS V14.01,2013-01-01 20:10:00,
2013-01-01 14:15:00,39.2,35.1,0.00,NNE,13,2.7,3.1,85,0.00,,---,0.00,VWS V14.01,2013-01-01 20:15:00,
2013-01-01 14:20:00,39.4,35.8,0.00,NNE,14,0.0,0.0,87,0.00,,---,0.00,VWS V14.01,2013-01-01 20:20:00,
2013-01-01 14:25:00,39.0,34.9,0.00,North,0,2.7,2.7,85,0.00,,---,0.00,VWS V14.01,2013-01-01 20:25:00,
2013-01-01 14:30:00,38.7,34.5,0.00,North,353,3.1,4.0,85,0.00,,---,0.00,VWS V14.01,2013-01-01 20:30:00,
2013-01-01 14:35:00,38.5,34.4,0.00,North,353,6.3,7.6,85,0.00,,---,0.00,VWS V14.01,2013-01-01 20:35:00,
2013-01-01 14:40:00,38.3,34.2,0.00,North,353,3.1,3.1,85,0.00,,---,0.00,VWS V14.01,2013-01-01 20:40:00,
2013-01-01 14:45:00,38.3,34.5,0.00,NNW,342,0.0,0.0,86,0.00,,---,0.00,VWS V14.01,2013-01-01 20:45:00,
2013-01-01 14:50:00,38.1,34.0,0.00,NNW,346,0.0,0.0,85,0.00,,---,0.00,VWS V14.01,2013-01-01 20:50:00,
2013-01-01 14:55:00,38.1,34.0,0.00,North,2,0.0,4.0,85,0.00,,---,0.00,VWS V14.01,2013-01-01 20:55:00,
2013-01-01 15:00:00,37.9,33.5,0.00,NNE,15,0.0,0.0,84,0.00,,---,0.00,VWS V14.01,2013-01-01 21:00:00,
2013-01-01 15:05:00,37.8,33.4,0.00,NNE,31,0.0,0.0,84,0.00,,---,0.00,VWS V14.01,2013-01-01 21:05:00,
2013-01-01 15:10:00,37.8,33.4,0.00,North,350,5.4,5.4,84,0.00,,---,0.00,VWS V14.01,2013-01-01 21:10:00,
2013-01-01 15:15:00,37.8,33.4,0.00,North,0,0.0,0.0,84,0.00,,---,0.00,VWS V14.01,2013-01-01 21:15:00,
2013-01-01 15:20:00,37.9,33.8,0.00,North,0,2.7,3.1,85,0.00,,---,0.00,VWS V14.01,2013-01-01 21:20:00,
2013-01-01 15:25:00,37.6,33.2,0.00,NNW,333,4.0,4.0,84,0.00,,---,0.00,VWS V14.01,2013-01-01 21:25:00,
2013-01-01 15:30:00,37.4,32.7,0.00,West,274,5.4,5.4,83,0.00,,---,0.00,VWS V14.01,2013-01-01 21:30:00,
2013-01-01 15:35:00,37.4,32.7,0.00,NE,44,0.0,0.0,83,0.00,,---,0.00,VWS V14.01,2013-01-01 21:35:00,
2013-01-01 15:40:00,37.0,32.4,0.00,North,353,0.0,0.0,83,0.00,,---,0.00,VWS V14.01,2013-01-01 21:40:00,
2013-01-01 15:45:00,37.0,32.1,0.00,NW,322,0.0,0.0,82,0.00,,---,0.00,VWS V14.01,2013-01-01 21:45:00,
2013-01-01 15:50:00,36.7,31.4,0.00,North,353,7.6,7.6,81,0.00,,---,0.00,VWS V14.01,2013-01-01 21:50:00,
2013-01-01 15:55:00,36.0,30.4,0.00,NNW,332,3.6,5.8,80,0.00,,---,0.00,VWS V14.01,2013-01-01 21:55:00,
2013-01-01 16:00:00,35.4,29.6,0.00,North,0,7.6,7.6,79,0.00,,---,0.00,VWS V14.01,2013-01-01 22:00:00,
2013-01-01 16:05:00,34.9,28.7,0.00,North,353,6.7,6.7,78,0.00,,---,0.00,VWS V14.01,2013-01-01 22:05:00,
2013-01-01 16:10:00,34.3,27.6,0.00,NNW,337,10.1,10.1,76,0.00,,---,0.00,VWS V14.01,2013-01-01 22:10:00,
2013-01-01 16:15:00,33.8,26.7,0.00,NW,325,2.7,2.7,75,0.00,,---,0.00,VWS V14.01,2013-01-01 22:15:00,
2013-01-01 16:20:00,33.6,26.9,0.00,NNW,342,2.7,4.0,76,0.00,,---,0.00,VWS V14.01,2013-01-01 22:20:00,
2013-01-01 16:25:00,33.6,27.2,0.00,NW,326,3.6,3.6,77,0.00,,---,0.00,VWS V14.01,2013-01-01 22:25:00,
2013-01-01 16:30:00,33.4,26.4,0.00,NNW,336,3.1,4.0,75,0.00,,---,0.00,VWS V14.01,2013-01-01 22:30:00,
2013-01-01 16:35:00,33.3,26.2,0.00,NW,307,5.4,5.4,75,0.00,,---,0.00,VWS V14.01,2013-01-01 22:35:00,
2013-01-01 16:40:00,32.7,24.7,0.00,North,0,2.7,3.1,72,0.00,,---,0.00,VWS V14.01,2013-01-01 22:40:00,
2013-01-01 16:45:00,32.5,24.9,0.00,NW,313,2.2,4.9,73,0.00,,---,0.00,VWS V14.01,2013-01-01 22:45:00,
2013-01-01 16:50:00,32.4,24.4,0.00,NNW,343,2.7,3.6,72,0.00,,---,0.00,VWS V14.01,2013-01-01 22:50:00,
2013-01-01 16:55:00,32.2,24.2,0.00,WNW,290,4.9,5.4,72,0.00,,---,0.00,VWS V14.01,2013-01-01 22:55:00,
2013-01-01 17:00:00,32.0,24.0,0.00,NNW,330,3.1,5.4,72,0.00,,---,0.00,VWS V14.01,2013-01-01 23:00:00,
2013-01-01 17:05:00,31.8,23.5,0.00,NW,312,4.9,7.6,71,0.00,,---,0.00,VWS V14.01,2013-01-01 23:05:00,
2013-01-01 17:10:00,31.6,23.3,0.00,NNW,338,5.4,5.4,71,0.00,,---,0.00,VWS V14.01,2013-01-01 23:10:00,
2013-01-01 17:15:00,31.5,23.2,0.00,NW,313,2.2,4.0,71,0.00,,---,0.00,VWS V14.01,2013-01-01 23:15:00,
2013-01-01 17:20:00,31.5,23.2,0.00,NW,323,3.6,3.6,71,0.00,,---,0.00,VWS V14.01,2013-01-01 23:20:00,
2013-01-01 17:25:00,31.6,23.7,0.00,NNW,348,0.0,0.0,72,0.00,,---,0.00,VWS V14.01,2013-01-01 23:25:00,
2013-01-01 17:30:00,31.3,23.0,0.00,NNW,345,5.8,5.8,71,0.00,,---,0.00,VWS V14.01,2013-01-01 23:30:00,
2013-01-01 17:35:00,31.3,23.0,0.00,NW,309,3.1,3.6,71,0.00,,---,0.00,VWS V14.01,2013-01-01 23:35:00,
2013-01-01 17:40:00,31.3,23.3,0.00,NNW,334,0.0,4.9,72,0.00,,---,0.00,VWS V14.01,2013-01-01 23:40:00,
2013-01-01 17:45:00,31.1,22.8,0.00,NNW,339,6.3,6.3,71,0.00,,---,0.00,VWS V14.01,2013-01-01 23:45:00,
2013-01-01 17:50:00,30.9,22.3,0.00,NNW,341,2.7,3.1,70,0.00,,---,0.00,VWS V14.01,2013-01-01 23:50:00,
2013-01-01 17:55:00,30.7,22.1,0.00,NNW,330,3.6,4.0,70,0.00,,---,0.00,VWS V14.01,2013-01-01 23:55:00,
2013-01-01 18:00:00,30.7,22.1,0.00,NNW,338,3.1,5.8,70,0.00,,---,0.00,VWS V14.01,2013-01-02 00:00:00,
2013-01-01 18:05:00,30.7,22.1,0.00,NW,311,3.6,4.9,70,0.00,,---,0.00,VWS V14.01,2013-01-02 00:05:00,
2013-01-01 18:10:00,30.6,22.0,0.00,NNW,327,3.1,3.1,70,0.00,,---,0.00,VWS V14.01,2013-01-02 00:10:00,
2013-01-01 18:15:00,30.4,21.8,0.00,NNW,330,4.0,4.9,70,0.00,,---,0.00,VWS V14.01,2013-01-02 00:15:00,
2013-01-01 18:20:00,30.2,21.6,0.00,North,349,4.9,8.1,70,0.00,,---,0.00,VWS V14.01,2013-01-02 00:20:00,
2013-01-01 18:25:00,30.0,21.1,0.00,NNW,341,2.7,3.1,69,0.00,,---,0.00,VWS V14.01,2013-01-02 00:25:00,
2013-01-01 18:30:00,30.0,20.8,0.00,NNW,327,2.7,6.3,68,0.00,,---,0.00,VWS V14.01,2013-01-02 00:30:00,
2013-01-01 18:35:00,29.8,20.9,0.00,North,353,0.0,0.0,69,0.00,,---,0.00,VWS V14.01,2013-01-02 00:35:00,
2013-01-01 18:40:00,29.8,20.9,0.00,North,11,0.0,0.0,69,0.00,,---,0.00,VWS V14.01,2013-01-02 00:40:00,
2013-01-01 18:45:00,29.8,21.3,0.00,North,353,0.0,0.0,70,0.00,,---,0.00,VWS V14.01,2013-01-02 00:45:00,
2013-01-01 18:50:00,30.0,21.4,0.00,NNW,343,0.0,0.0,70,0.00,,---,0.00,VWS V14.01,2013-01-02 00:50:00,
2013-01-01 18:55:00,30.0,21.8,0.00,NNW,335,0.0,0.0,71,0.00,,---,0.00,VWS V14.01,2013-01-02 00:55:00,
2013-01-01 19:00:00,29.8,21.6,0.00,NNW,341,8.3,8.3,71,0.00,,---,0.00,VWS V14.01,2013-01-02 01:00:00,
2013-01-01 19:05:00,29.5,20.9,0.00,North,0,0.0,0.0,70,0.00,,---,0.00,VWS V14.01,2013-01-02 01:05:00,
2013-01-01 19:10:00,29.5,21.2,0.00,North,357,2.2,3.6,71,0.00,,---,0.00,VWS V14.01,2013-01-02 01:10:00,
2013-01-01 19:15:00,29.7,21.1,0.00,WNW,297,5.8,7.2,70,0.00,,---,0.00,VWS V14.01,2013-01-02 01:15:00,
2013-01-01 19:20:00,29.7,21.1,0.00,NNW,334,5.4,5.4,70,0.00,,---,0.00,VWS V14.01,2013-01-02 01:20:00,
2013-01-01 19:25:00,29.5,20.9,0.00,NNW,338,3.6,4.9,70,0.00,,---,0.00,VWS V14.01,2013-01-02 01:25:00,
2013-01-01 19:30:00,29.3,20.4,0.00,North,357,3.6,8.7,69,0.00,,---,0.00,VWS V14.01,2013-01-02 01:30:00,
2013-01-01 19:35:00,29.1,20.6,0.00,NNW,335,5.8,5.8,70,0.00,,---,0.00,VWS V14.01,2013-01-02 01:35:00,
2013-01-01 19:40:00,29.1,20.2,0.00,NNW,338,4.0,4.0,69,0.00,,---,0.00,VWS V14.01,2013-01-02 01:40:00,
2013-01-01 19:45:00,29.1,20.2,0.00,North,5,3.6,8.1,69,0.00,,---,0.00,VWS V14.01,2013-01-02 01:45:00,
2013-01-01 19:50:00,29.1,20.6,0.00,NNW,341,4.9,5.8,70,0.00,,---,0.00,VWS V14.01,2013-01-02 01:50:00,
2013-01-01 19:55:00,29.3,20.7,0.00,NW,320,3.1,5.4,70,0.00,,---,0.00,VWS V14.01,2013-01-02 01:55:00,
2013-01-01 20:00:00,28.9,20.4,0.00,WNW,301,4.9,5.4,70,0.00,,---,0.00,VWS V14.01,2013-01-02 02:00:00,
2013-01-01 20:05:00,28.8,20.2,0.00,NNW,331,0.0,0.0,70,0.00,,---,0.00,VWS V14.01,2013-01-02 02:05:00,
2013-01-01 20:10:00,28.8,20.6,0.00,NNW,328,4.9,5.8,71,0.00,,---,0.00,VWS V14.01,2013-01-02 02:10:00,
2013-01-01 20:15:00,28.8,20.2,0.00,NNW,343,5.4,8.3,70,0.00,,---,0.00,VWS V14.01,2013-01-02 02:15:00,
2013-01-01 20:20:00,28.6,20.0,0.00,NW,323,3.1,4.0,70,0.00,,---,0.00,VWS V14.01,2013-01-02 02:20:00,
2013-01-01 20:25:00,28.8,20.2,0.00,North,0,4.9,6.3,70,0.00,,---,0.00,VWS V14.01,2013-01-02 02:25:00,
2013-01-01 20:30:00,28.6,20.0,0.00,NNW,340,4.0,4.0,70,0.00,,---,0.00,VWS V14.01,2013-01-02 02:30:00,
2013-01-01 20:35:00,28.6,20.0,0.00,North,350,3.1,5.8,70,0.00,,---,0.00,VWS V14.01,2013-01-02 02:35:00,
2013-01-01 20:40:00,28.4,19.9,0.00,NW,320,5.8,5.8,70,0.00,,---,0.00,VWS V14.01,2013-01-02 02:40:00,
2013-01-01 20:45:00,28.0,19.5,0.00,WNW,302,3.1,4.0,70,0.00,,---,0.00,VWS V14.01,2013-01-02 02:45:00,
2013-01-01 20:50:00,28.2,19.7,0.00,NW,311,4.9,6.3,70,0.00,,---,0.00,VWS V14.01,2013-01-02 02:50:00,
2013-01-01 20:55:00,28.4,20.2,0.00,North,0,2.7,2.7,71,0.00,,---,0.00,VWS V14.01,2013-01-02 02:55:00,
2013-01-01 21:00:00,28.4,19.9,0.00,North,0,2.7,4.0,70,0.00,,---,0.00,VWS V14.01,2013-01-02 03:00:00,
2013-01-01 21:05:00,28.2,19.7,0.00,NNW,339,0.0,3.1,70,0.00,,---,0.00,VWS V14.01,2013-01-02 03:05:00,
2013-01-01 21:10:00,28.2,20.0,0.00,NW,325,5.4,6.7,71,0.00,,---,0.00,VWS V14.01,2013-01-02 03:10:00,
2013-01-01 21:15:00,28.2,19.7,0.00,NNW,330,3.1,4.9,70,0.00,,---,0.00,VWS V14.01,2013-01-02 03:15:00,
2013-01-01 21:20:00,27.9,19.4,0.00,NNE,18,2.7,5.4,70,0.00,,---,0.00,VWS V14.01,2013-01-02 03:20:00,
2013-01-01 21:25:00,27.7,19.2,0.00,NW,323,2.7,2.7,70,0.00,,---,0.00,VWS V14.01,2013-01-02 03:25:00,
2013-01-01 21:30:00,27.1,18.7,0.00,North,353,0.0,0.0,70,0.00,,---,0.00,VWS V14.01,2013-01-02 03:30:00,
2013-01-01 21:35:00,27.0,18.5,0.00,NNW,337,0.0,0.0,70,0.00,,---,0.00,VWS V14.01,2013-01-02 03:35:00,
2013-01-01 21:40:00,26.8,18.3,0.00,NNW,344,0.0,0.0,70,0.00,,---,0.00,VWS V14.01,2013-01-02 03:40:00,
2013-01-01 21:45:00,26.8,18.6,0.00,NNW,330,0.0,0.0,71,0.00,,---,0.00,VWS V14.01,2013-01-02 03:45:00,
2013-01-01 21:50:00,26.8,18.6,0.00,North,0,0.0,0.0,71,0.00,,---,0.00,VWS V14.01,2013-01-02 03:50:00,
2013-01-01 21:55:00,26.8,18.6,0.00,NNW,344,4.0,4.9,71,0.00,,---,0.00,VWS V14.01,2013-01-02 03:55:00,
2013-01-01 22:00:00,26.8,19.0,0.00,North,7,0.0,0.0,72,0.00,,---,0.00,VWS V14.01,2013-01-02 04:00:00,
2013-01-01 22:05:00,26.8,19.0,0.00,NNW,340,0.0,0.0,72,0.00,,---,0.00,VWS V14.01,2013-01-02 04:05:00,
2013-01-01 22:10:00,26.8,19.0,0.00,North,0,0.0,0.0,72,0.00,,---,0.00,VWS V14.01,2013-01-02 04:10:00,
2013-01-01 22:15:00,26.6,18.8,0.00,NNW,344,0.0,0.0,72,0.00,,---,0.00,VWS V14.01,2013-01-02 04:15:00,
2013-01-01 22:20:00,26.6,18.8,0.00,NNW,341,0.0,0.0,72,0.00,,---,0.00,VWS V14.01,2013-01-02 04:20:00,
2013-01-01 22:25:00,26.6,18.8,0.00,NNW,348,2.2,2.2,72,0.00,,---,0.00,VWS V14.01,2013-01-02 04:25:00,
2013-01-01 22:30:00,26.6,18.5,0.00,North,0,5.4,5.4,71,0.00,,---,0.00,VWS V14.01,2013-01-02 04:30:00,
2013-01-01 22:35:00,26.6,18.5,0.00,North,353,0.0,4.0,71,0.00,,---,0.00,VWS V14.01,2013-01-02 04:35:00,
2013-01-01 22:40:00,26.2,18.1,0.00,NNW,331,3.6,4.0,71,0.00,,---,0.00,VWS V14.01,2013-01-02 04:40:00,
2013-01-01 22:45:00,26.1,17.6,0.00,North,353,0.0,0.0,70,0.00,,---,0.00,VWS V14.01,2013-01-02 04:45:00,
2013-01-01 22:50:00,26.1,17.6,0.00,NW,317,3.1,4.9,70,0.00,,---,0.00,VWS V14.01,2013-01-02 04:50:00,
2013-01-01 22:55:00,25.9,17.5,0.00,North,353,0.0,0.0,70,0.00,,---,0.00,VWS V14.01,2013-01-02 04:55:00,
2013-01-01 23:00:00,25.5,17.1,0.00,NNW,345,2.2,2.7,70,0.00,,---,0.00,VWS V14.01,2013-01-02 05:00:00,
2013-01-01 23:02:00,25.5,17.1,0.00,North,353,0.0,0.0,70,0.00,,---,0.00,VWS V14.01,2013-01-02 05:02:00,
2013-01-01 23:07:00,25.3,16.9,0.00,North,0,0.0,0.0,70,0.00,,---,0.00,VWS V14.01,2013-01-02 05:07:00,
2013-01-01 23:12:00,25.3,16.9,0.00,NNW,333,3.1,4.0,70,0.00,,---,0.00,VWS V14.01,2013-01-02 05:12:00,
2013-01-01 23:17:00,25.3,16.9,0.00,North,357,4.9,4.9,70,0.00,,---,0.00,VWS V14.01,2013-01-02 05:17:00,
2013-01-01 23:22:00,25.2,16.8,0.00,NNW,343,3.1,4.9,70,0.00,,---,0.00,VWS V14.01,2013-01-02 05:22:00,
2013-01-01 23:27:00,25.0,16.6,0.00,North,8,3.6,5.4,70,0.00,,---,0.00,VWS V14.01,2013-01-02 05:27:00,
2013-01-01 23:32:00,24.8,16.8,0.00,NNE,17,0.0,0.0,71,0.00,,---,0.00,VWS V14.01,2013-01-02 05:32:00,
2013-01-01 23:37:00,24.6,16.6,0.00,North,349,0.0,2.7,71,0.00,,---,0.00,VWS V14.01,2013-01-02 05:37:00,
2013-01-01 23:42:00,24.6,16.6,0.00,North,353,2.7,2.7,71,0.00,,---,0.00,VWS V14.01,2013-01-02 05:42:00,
2013-01-01 23:47:00,24.6,16.6,0.00,NNE,20,0.0,0.0,71,0.00,,---,0.00,VWS V14.01,2013-01-02 05:47:00,
2013-01-01 23:52:00,24.6,16.6,0.00,North,0,0.0,0.0,71,0.00,,---,0.00,VWS V14.01,2013-01-02 05:52:00,
2013-01-01 23:57:00,24.4,16.4,0.00,North,0,0.0,5.8,71,0.00,,---,0.00,VWS V14.01,2013-01-02 05:57:00,